This is the latest recevied weather packets stored in our database for station/object CE3TDM-10. If no packets are shown the sender has not sent any weather packets the latest 10 day(s).
| Time | Temp. | Humidity | Pressure | Rain* | Wind** | Luminosity | Snow |
|---|---|---|---|---|---|---|---|
| 1788110200 | 35° C | 27% | 920.6 hPa | - | - | - | - |
| 1788109300 | 32.78° C | 28% | 920.8 hPa | - | - | - | - |
| 1788102099 | 28.33° C | 36% | 921.1 hPa | - | - | - | - |
| 1788099407 | 16.67° C | 38% | 921 hPa | - | - | - | - |
| 1788096699 | 15° C | 38% | 920.8 hPa | - | - | - | - |
| 1788094906 | 13.33° C | 38% | 920.5 hPa | - | - | - | - |
| 1788093106 | 11.11° C | 38% | 920.3 hPa | - | - | - | - |
| 1788091311 | 10.56° C | 37% | 920 hPa | - | - | - | - |
| 1788090398 | 10.56° C | 37% | 919.8 hPa | - | - | - | - |
| 1788089501 | 10.56° C | 36% | 919.9 hPa | - | - | - | - |
| 1788088604 | 11.11° C | 36% | 919.8 hPa | - | - | - | - |
| 1788087704 | 11.67° C | 35% | 919.3 hPa | - | - | - | - |
| 1788086798 | 12.78° C | 34% | 919.2 hPa | - | - | - | - |
| 1788085898 | 14.44° C | 33% | 919 hPa | - | - | - | - |
| 1788084097 | 24.44° C | 31% | 918.9 hPa | - | - | - | - |
| 1788080497 | 24.44° C | 31% | 918.3 hPa | - | - | - | - |
| 1788079600 | 24.44° C | 31% | 918.3 hPa | - | - | - | - |
| 1788075099 | 24.44° C | 31% | 917.9 hPa | - | - | - | - |
| 1788073296 | 25° C | 31% | 918.3 hPa | - | - | - | - |
| 1788069696 | 25° C | 30% | 918.7 hPa | - | - | - | - |
| 1788066996 | 25° C | 30% | 919 hPa | - | - | - | - |
| 1788066096 | 25° C | 31% | 919.1 hPa | - | - | - | - |
| 1788065196 | 25° C | 30% | 919.2 hPa | - | - | - | - |
| 1788061596 | 26.67° C | 29% | 919.6 hPa | - | - | - | - |
| 1788060695 | 27.22° C | 28% | 919.7 hPa | - | - | - | - |
* Rain since midnight (hover to see other rain measurements)
** Current wind speed in m/s (hover to see current wind gust speed)